RH
87 91 90 92 93 92 93 90 86 93 93 89 92 92 93 94 92 92 92 86 87 84
85 86 88 89 92 94 90 87 87 91 89 89 88 92 94 95 94 94 93 94 94 92
84 83 86 88 91 91 92 91 85 86 84 82 84 93 94 94 93 96 96 97 95 93
83 84 86 88 89 93 88 92 90 82 81 80 89 92 95 94 94 96 97 96 95 93
86 85 87 88 89 90 94 93 92 92 87 82 86 91 96 97 95 96 97 96 94 89
87 87 88 88 87 88 90 92 94 95 95 94 92 92 94 95 95 95 93 92 92 87
85 86 87 86 86 88 87 90 90 92 94 94 92 92 92 95 95 94 92 89 88 84
82 81 82 86 87 87 88 87 87 88 88 93 93 87 94 95 96 95 95 92 88 81
79 80 83 84 84 86 86 87 89 91 90 90 86 96 97 98 97 95 95 95 89 78
79 82 85 83 84 84 88 87 88 88 89 92 93 96 96 98 96 98 96 95 93 93
83 82 82 82 86 92 89 88 90 88 88 88 87 94 96 95 94 96 97 97 96 98
87 87 86 90 92 90 91 93 94 92 91 92 92 92 95 93 92 94 99 96 95 96
85 90 92 95 95 93 94 97 89 98 97 91 94 92 91 92 97 97 98 98 97 99
89 90 89 88 91 94 96 95 95 94 96 91 91 94 89 90 93 96 96 96 96 96
Wind_Speed
12 6 5 7 8 6 8 10 13 14 14 15 16 14 12 11 11 11 11 15 12 9
10 10 9 10 10 7 9 9 12 13 16 16 16 15 14 11 12 11 11 11 12 10
13 14 12 11 12 11 9 9 11 14 15 15 14 11 12 11 11 12 10 9 12 11
12 13 11 10 12 12 13 8 10 12 13 14 11 11 11 12 12 14 13 12 12 12
15 15 14 13 14 14 15 7 9 9 11 13 13 11 13 14 12 15 15 14 13 12
16 15 15 15 15 15 15 16 7 6 8 10 11 11 13 15 15 15 15 14 14 13
17 17 16 16 16 16 15 16 15 16 8 7 7 9 12 13 14 14 14 15 15 14
16 16 16 17 17 16 17 16 15 15 15 16 14 12 12 11 13 12 13 13 13 15
18 17 18 17 18 17 18 17 17 18 16 15 10 22 18 10 10 14 14 13 14 15
18 18 18 17 17 19 18 16 17 17 17 17 18 28 23 19 5 8 12 13 10 10
17 17 17 18 17 16 15 17 16 17 17 16 18 31 26 17 13 12 12 14 11 7
17 17 17 17 16 15 14 14 13 13 17 18 19 33 33 17 11 13 11 12 14 11
16 16 16 15 15 13 11 12 11 13 15 22 16 30 30 22 8 10 9 9 14 23
16 15 15 15 14 14 13 12 14 14 14 18 20 20 31 31 14 11 10 11 10 10
Wind_Direction
19 346 328 324 308 228 210 213 218 211 213 206 185 180 194 201 209 205 210 211 216 220
4 354 351 329 300 287 227 224 216 211 208 208 199 184 185 202 206 200 207 211 206 208
2 3 351 333 323 279 262 224 222 217 218 217 206 178 192 202 203 198 202 204 197 201
12 5 354 348 341 324 286 230 230 224 221 217 209 187 192 206 206 201 200 197 196 201
13 10 3 358 353 345 343 235 228 228 224 223 215 200 201 209 207 204 199 196 196 204
20 14 7 3 2 1 357 0 321 220 227 225 220 214 211 212 210 207 207 195 195 200
16 15 13 9 11 10 9 12 3 4 317 248 251 231 226 222 217 211 212 199 197 199
12 13 16 17 17 15 22 19 18 19 20 19 34 13 340 274 214 215 212 199 198 203
17 15 15 14 20 19 24 21 23 21 20 23 10 351 348 334 248 207 206 201 200 208
17 17 15 14 16 21 23 22 29 23 19 19 8 1 358 352 333 254 222 197 196 201
16 16 16 17 17 17 19 23 23 24 21 21 16 9 8 12 37 40 25 28 20 360
17 17 17 18 12 13 19 19 22 23 23 20 19 16 15 13 34 50 21 32 29 23
23 23 18 17 15 9 17 20 19 26 27 26 23 22 24 24 15 30 45 17 27 26
20 22 19 21 23 16 15 21 24 23 23 25 24 22 27 29 30 24 27 30 18 15